Погода Ханты-Мансийск

Погода Ханты-Мансийск : погода сейчас, прогноз погоды и архив. Всё, что Вы хотите узнать о погоде Ханты-Мансийск!

Хотите узнать прогноз погоды Ханты-Мансийск? Тогда Вам сюда: Погода Ханты-Мансийск

Поиск расширенной информации на нашем сайте:

Другие новости

Новости СМИ2

Главная страница сайта

Новости сайта

02.10.2013

Напоминаем, что на нашем новом сайте вы можете получить высокодетализированные прогнозы погоды по пунктам России, СНГ и мира (включающие важные для авиации метеовеличины, такие как направление и скорость ветра, видимость, явления погоды, количество и форма облачности, нижняя и верхняя граница облачности), а также ознакомиться с разнообразными материалами по авиационной метеорологии и подборкой полезных ссылок на эту тему.

Сайт Метеоцентр.Азия посвящён разработке технологий оптимизации авиаметеорологического обслуживания, включая проектирование и перспективное создание нескольких автоматизированных авиаметеорологических систем:
- система выпуска высокодетальных прогностических карт явлений погоды для нижнего воздушного пространства по России и ближнему зарубежью;
- система верификации прогнозов TAF (выпускаемых синоптиками официальных АМСГ РФ и ближнего зарубежья) и AUTOTAF (выпускаемых сайтом Метеоцентр.Азия) - выявление ошибок, онлайн-сопоставление с фактической погодой METAR, автоматическое внесение коррективов в прогнозы при резком отклонении фактической погоды от прогноза, подсчёт оправдываемости прогнозов по элементам и в целом;
- система обработки, анализа и отображения авиаметеорологической информации для применения провайдерами метеорологической информации.

Рекомендуем: Колодки тормозные передние TRW GDB793 http://www.10w40.ru.

Погода Ханты-Мансийск - сегодня

Время (UTC), дата Ветер
(°,м/с) 
Видим.   Явления Облачность Т
(°С)
Тd
(°С)
f(%) Тe
(°С)
Pmin
(гПа)
dP
(гПа)
Po
(мм)
O2
(г/м3)
Тmin Tmax R s Состояние
почвы
09 21.01.17 170 (Ю) 4000 м  слаб. снег  10/0 средняя 
[Ac As]
-15.6 -17.3 87 -20  985.7  -1.6  735  315           
12 21.01.17 160 (Ю) 4000 м  слаб. снег  10/0 средняя 
[Ac As]
-14.6 -16.2 88 -18  985.2  -0.5  735  314           
15 21.01.17 170 (Ю) 4000 м  слаб. снег  10/0 средняя 
[Sc|Ac As]
-12 -13.3 90 -15  984.4  -0.7  734  311    -12  0.9     
18 21.01.17 190 (Ю) 4000 м  слаб. снег  9/0 средняя 
[Ac As]
-10.4 -11.6 91 -13  984.5  0.1  734  309           
21 21.01.17 190 (Ю) 2000 м  снег  10/0 средняя 
[Ac As]
-9.2 -10.2 92 -11  985.3  0.8  735  307           
00 22.01.17 220 (ЮЗ) 4000 м  слаб. снег  10/8 600 м средняя 
[Sc diur, vesp|Ac As]
-9.1 -10.2 92 -12  986.6  1.3  736  308           
03 22.01.17 220 (ЮЗ) 4000 м  слаб. снег  9/0 средняя 
[Ac As]
-10.9 -12.2 90 -15  988.2  1.6  737  310  -12.1    49  равномерный
сухой снег
100% 
06 22.01.17 210 (ЮЗ) 4000 м  слаб. снег  8/0 средняя 
[Ac As]
-10.8 -12.1 90 -14  989.9  1.7  738  311           
09 22.01.17 190 (Ю) 4000 м  слаб. снег  8/0 средняя 
[Ac As]
-11.6 -13.2 88 -15  991.4  1.5  739  312           
12 22.01.17 180 (Ю) 3{10}  4000 м    6/0 средняя 
[Ac As]
-14.2 -15.8 88 -18  992.1  0.7  740  316           
15 22.01.17 180 (Ю) 10 км    ясно 
-16 -17.6 87 -20  992.4  0.2  740  318    -10.4  0.4     
18 22.01.17 150 (ЮВ) 10 км    ясно 
-18 -19.8 86 -21  991.7  -0.8  739  320           
21 22.01.17 160 (Ю) 10 км  ледяные иглы{снег}  10/0 верхняя 
[Cs]
-18.5 -20.3 86 -19  990.5  -1.2  738  321           
00 23.01.17 170 (Ю) 4000 м  слаб. снег [диам. изморози 0.2 мм]  10/0 средняя 
[Ac As]
-17.9 -19.7 86 -18  989.4  -1.1  738  320           
03 23.01.17 170 (Ю) 4000 м  слаб. снег [диам. изморози 0.6 мм]  10/0 средняя 
[Ac As]
-18.4 -20.2 86 -19  988.6  -0.8  737  320  -18.9    0.0  49  равномерный
сухой снег
100% 
06 23.01.17 190 (Ю) 10 км  ледяные иглы{снег} [диам. изморози 1 мм]  9/0 средняя, верхняя 
[Ac As|Cc]
-18.6 -20.5 85 -19  988.4  737  320  -19.4         
12 23.01.17 190 (Ю) 4000 м  слаб. снег [диам. изморози 9 мм]  10/0 средняя 
[Ac As]
-18.2 -20.1 85 -22  989.5  0.7  738  320           
15 23.01.17 220 (ЮЗ) 10 км  {снег} [диам. изморози 9 мм]  4/0 средняя 
[Ac trans]
-18.3 -20.1 86 -21  990.2  0.7  738  320    -18  0.5     
18 23.01.17 190 (Ю) 10 км  ледяные иглы{снег} [диам. изморози 9 мм]  6/0 средняя 
[As op]
-17.8 -19.6 86 -20  990.9  0.7  739  320           
21 23.01.17 170 (Ю) 4000 м  слаб. снег [диам. изморози 10 мм]  8/0 средняя 
[Ac As]
-17.3 -19.1 86 -20  991.6  0.7  739  320           
00 24.01.17 180 (Ю) 4000 м  снег [диам. изморози 10 мм]  10/10 1000 м 
[Sc diur, vesp]
-16.6 -18.3 87 -19  992.1  0.6  740  319           
03 24.01.17 170 (Ю) 10 км  ледяные иглы{снег} [диам. изморози 10 мм]  10/3 1000 м средняя 
[Sc|Ac As]
-15.7 -17.3 87 -18  992.9  0.8  740  318  -18.4    0.6  50  равномерный
сухой снег
100% 
06 24.01.17 190 (Ю) 4000 м  слаб. снег  10/0 средняя 
[Ac As]
-15.3 -16.9 88 -15  994.5  1.6  742  318           
09 24.01.17 280 (З) 4000 м  слаб. снег [диам. изморози 10 мм]  10/0 средняя 
[Ac As]
-19.4 -21.5 83 -24  997.1  2.5  743  324           
12 24.01.17 300 (СЗ) 4000 м  слаб. снег [диам. изморози 10 мм]  10/0 средняя 
[Ac As]
-19.9 -22 83 -23  1000.2  3.1  746  326           
Время (UTC), дата Ветер
(°,м/с) 
Видим.   Явления Облачность Т
(°С)
Тd
(°С)
f(%) Тe
(°С)
Pmin
(гПа)
dP
(гПа)
Po
(мм)
O2
(г/м3)
Тmin Tmax R s Состояние
почвы

Для получения пояснительной информации подведите курсор к названию столбца.

ПОГОДА Ханты-Мансийск - архив

Всё, что Вы хотите узнать о погоде Ханты-Мансийск - удобно и подробно!

Выберите нужную дату (начиная с 1 января 2015* года) и нажмите кнопку "Найти".
Будут отображены архивные сводки погоды по пункту Ханты-Мансийск, начиная с указанной даты.


Отображать данные в формате CSV (для использования в таблицах Excel)


Внимание! Наш архив погоды предназначен исключительно для личного некоммерческого использования в познавательных целях. Если Вам необходимы официальные справки о состоянии погоды (для производственных, юридических, коммерческих и т.п. целей), обращайтесь в органы Росгидромета.

*Примечание: данная дата относится к архиву по метеостанциям СССР (Россия, СНГ, Балтия).
Архив по метеостанциям Зарубежной Европы и Азии (кроме Китая) хранится 10 дней, по другим регионам земного шара (Китай, Африка, Америка, Австралия, Океания) - 1 день.

Ханты-Мансийск - район местоположения метеостанции


Название, широта, долгота, высота метеостанции:
Ханты-Мансийск 61°ш. 69°д. 46 м над ур. моря [Российская Федерация]

Дополнительная информация

В oтличие oт бoльшинства пoгoдных сайтoв мы публикуем пoдрoбную метеoинфoрмацию в детальнoм прoфессиoнальнoм фoрмате.

Характеристики температуры и влажнoсти вoздуха измеряются на высoте 2 м в тени вдали oт зданий и деревьев.
Скoрoсть ветра измеряется на высoте 10 м (на урoвне рoста челoвека скoрoсть ветра ниже в 1.5-2 раза). Если метеoстанция нахoдится в гoрoде или в лесу, тo скoрoсть ветра занижена на 2-4 м/с пo сравнению с oткрытым местoм. Скoрoсть ветра над акватoриями крупных рек и oзёр, а также на вершинах хoлмoв на 2-5 м/с выше, чем в oбычных услoвиях.
Атмoсфернoе давление в разных тoчках местнoсти мoжет значительнo oтличаться oт давления на метеoстанции, в зависимoсти oт услoвий рельефа (при пoдъёме на 10 м давление пoнижается примернo на 1 мм рт.ст.).